A/2021 E2

Japanese version
Home page
Updated on September 18, 2021

---------------------------------------------------------------------

* Profile

Discovery Date March 7, 2021
Magnitude 21.19 mag
Discoverer Mt. Lemmon Survey

* Orbital Elements

Epoch 2021 July 5.0 TT = JDT 2459400.5
T 2020 Dec. 10.46901 TT                                 Rudenko
q   2.2882654            (2000.0)            P               Q
z  +0.0042724      Peri.  342.46205     -0.88140982     -0.47060084
 +/-0.0000122      Node   190.81157     -0.40324631     +0.70486258
e   0.9902237      Incl.  167.48748     -0.24598606     +0.53075756
H   15.0
From 75 observations 2021 Mar. 7-June 4, mean residual 0".5.

* Magnitudes Graph

        H = 17.5  G = 0.15

---------------------------------------------------------------------

The orbital elements are published on M.P.E.C. 2021-N06.
The magnitudes graphs are made with Comet for Windows.

---------------------------------------------------------------------

Copyright(C) Seiichi Yoshida (comet@aerith.net). All rights reserved.